Regional Weather Roundup
Issued by NWS Spokane, WA

Home | Current Version | Previous Version | Text Only | Print | Product List | Glossary On
Versions: 1 2 3 4 5 6 7 8 9 10 11 12 13 14 15 16 17 18 19 20 21 22 23 24 25 26 27 28 29 30 31 32 33 34 35 36 37 38 39 40 41 42 43 44 45 46 47 48 49 50
000
NZUS01 KOTX 020910
RWROTX
EASTERN WASHINGTON/NORTHERN IDAHO ROUNDUP
NATIONAL WEATHER SERVICE, SPOKANE WA
200 AM PDT TUE SEP 02 2014

Note: "fair" indicated few or no clouds below 12,000 feet with no
significant weather and/or obstructions to visibility.

...NORTHEAST WASHINGTON AND NORTHERN IDAHO PANHANDLE...

CITY           SKY/WX    TMP DP  RH WIND       PRES   REMARKS
SPOKANE INTL   MOCLDY    54  39  57 S9        29.90F
SPOKANE DOWNTO MOCLDY    56  42  59 NE5       29.90F
COEUR D ALENE  MOCLDY    55  45  67 S10       29.91F
DEER PARK      CLOUDY    49  39  68 SE5       29.90F
SANDPOINT      CLOUDY    46  46 100 CALM      29.90F

...SOUTHEAST WASHINGTON AND SOUTHERN IDAHO PANHANDLE...

CITY           SKY/WX    TMP DP  RH WIND       PRES   REMARKS
WALLA WALLA    CLEAR     63  44  50 S7        29.91S
PULLMAN/MOSCOW CLEAR     52  39  61 NE5       29.95F
LEWISTON       CLEAR     60  43  53 CALM      29.91F
LOWELL           N/A     51  48  89 NW5       30.00S

...COLUMBIA BASIN...

CITY           SKY/WX    TMP DP  RH WIND       PRES   REMARKS
EPHRATA        MOCLDY    62  41  46 CALM      29.87F
MOSES LAKE     MOCLDY    63  43  48 W6        29.88F
TRI CITIES     CLEAR     59  49  69 CALM      29.88F
HERMISTON      CLEAR     55  48  77 CALM      29.89S
PENDLETON      CLEAR     56  42  59 SE6       29.92S

...EAST SLOPES CASCADES...

CITY           SKY/WX    TMP DP  RH WIND       PRES   REMARKS
THE DALLES     CLEAR     64  53  67 NW6       29.90F
YAKIMA         PTCLDY    58  48  69 SW3       29.91F
ELLENSBURG     PTCLDY    58  49  72 NW10      29.92F
STAMPEDE PASS  FOG       48  46  93 VRB5      30.01F VSB 1/4
WENATCHEE      MOCLDY    64  44  48 W10       29.88F
OMAK           CLOUDY    57  40  52 CALM      29.86F

...SOUTHERN BRITISH COLUMBIA...

CITY           SKY/WX    TMP DP  RH WIND       PRES   REMARKS
PENTICTON      MOCLDY    63  43  48 NW6       29.86F
CRANBROOK      PTCLDY    54  43  66 S5        29.88F

...WESTERN MONTANA...

CITY           SKY/WX    TMP DP  RH WIND       PRES   REMARKS
MISSOULA       PTCLDY    46  39  76 CALM      30.00S

...NEIGHBORING CITIES...

CITY           SKY/WX    TMP DP  RH WIND       PRES   REMARKS
SEATTLE        MOCLDY    63  54  72 NE8       29.98F
CALGARY        LGT RAIN  52  41  66 S6        29.81S



USA.gov is the U.S. government's official web portal to all federal, state and local government web resources and services.